Location: Unspecified
(0.0000°N, 0.0000°E)
Time: 18:19:23
(UTC+00:00)

Vanguard 3 - Pass Details

Date: 09 February 2023
Orbit: 509 x 3249 km, 33.3° (Epoch: 20 March)

Event Time Altitude Azimuth Distance (km) Brightness Sun altitude
Rises 22:45:00 0° 319° (NW) 5,694 11.5 -63.6°
Enters shadow 22:46:05 - 321° (NW) 5,475 11.4 -63.8°
Reaches altitude 10° 22:48:32 10° 326° (NW) 5,013 - -64.3°
Maximum altitude 23:03:47 48° 37° (NE) 3,696 - -67.3°
Drops below altitude 10° 23:22:29 10° 105° (ESE) 6,093 - -70.7°
Exits shadow 23:26:13 - 109° (ESE) 6,768 11.8 -71.3°
Sets 23:27:15 0° 110° (ESE) 6,960 11.8 -71.4°
